SCP
0 0 0 0 0 0 0 0 0 0 0 0 0 0 0 0 0 0 0 0 0 0 0 0 0 0 0 0 0 0 0 0 0 0 0 0 0 0 0 0 0 0 0 0
0 0 0 0 0 0 0 0 0 0 0 0 0 0 0 0 0 0 0 0 0 0 0 0 0 0 0 0 0 0 0 0 0 0 0 0 0 0 0 0 0 0 0 0
0 0 0 0 0 0 0 0 0 0 0 0 0 0 0 0 0 0 0 0 0 0 0 0 0 0 0 0 0 0 0 0 0 0 0 0 0 0 0 0 0 0 0 0
0 0 0 0 0 0 0 0 0 0 0 0 0 0 0 0 0 0 0 0 0 0 0 0 0 0 0 0 0 0 0 0 0 0 0 0 0 0 0 0 0 0 0 0
0 0 0 0 0 0 0 0 0 0 0 0 0 0 0 0 0 0 0 0 0 0 0 0 0 0 0 0 0 0 0 0 0 0 0 0 0 0 0 0 0 0 0 0
0 0 0 0 0 0 0 0 0 0 0 0 0 0 0 0 0 0 0 0 0 0 0 0 0 0 0 0 0 0 0 0 0 0 0 0 0 0 0 0 0 0 0 0
0 0 0 0 0 0 0 0 0 0 0 0 0 0 0 0 0 0 0 0 0 0 0 0 0 0 0 0 0 0 0 0 0 0 0 0 0 0 0 0 0 0 0 0
0 0 0 0 0 0 0 0 0 0 0 0 0 0 0 0 0 0 0 0 0 0 0 0 0 0 0 0 0 0 0 0 0 0 0 0 0 0 0 0 0 0 0 0
0 0 0 0 0 0 0 0 0 0 0 0 0 0 0 0 0 0 0 0 0 0 0 0 0 0 0 0 0 0 0 0 0 0 0 0 0 0 0 0 0 0 0 0
0 0 0 0 0 0 0 0 0 0 0 0 0 0 0 0 0 0 0 0 0 0 0 0 0 0 0 0 0 0 0 0 0 0 0 0 0 0 0 0 0 0 0 0
0 0 0 0 0 0 0 0 0 0 0 0 0 0 0 0 0 0 0 0 0 0 0 0 0 0 0 0 0 0 0 0 0 0 0 0 0 0 0 0 0 0 0 0
0 0 0 0 0 0 0 0 0 0 0 0 0 0 0 0 0 0 0 0 0 0 0 0 0 0 0 0 0 0 0 0 0 0 0 0 0 0 0 0 0 0 0 0
0 0 0 0 0 0 0 0 0 0 0 0 0 0 0 0 0 0 0 0 0 0 0 0 0 0 0 0 0 0 0 0 0 0 0 0 0 0 0 0 0 0 0 0
0 0 0 0 0 0 0 0 0 0 0 0 0 0 0 0 0 0 0 0 0 0 0 0 0 0 0 0 0 0 0 0 0 0 0 0 0 0 0 0 0 0 0 0
0 0 0 0 0 0 0 0 0 0 0 0 0 0 0 0 0 0 0 0 0 0 0 0 0 0 0 0 0 0 0 0 0 0 0 0 0 0 0 0 0 0 0 0
0 0 0 0 0 0 0 0 0 0 0 0 0 0 0 0 0 0 0 0 0 0 0 0 0 0 0 0 0 0 0 0 0 0 0 0 0 0 0 0 0 0 0 0
0 0 0 0 0 0 0 0 0 0 0 0 0 0 0 0 0 0 0 0 0 0 0 0 0 0 0 0 0 0 0 0 0 0 0 0 0 0 0 0 0 0 0 0
0 0 0 0 0 0 0 0 0 0 0 0 0 0 0 0 0 0 0 0 0 0 0 0 0 0 0 0 0 0 0 0 0 0 0 0 0 0 0 0 0 0 0 0
0 0 0 0 0 0 0 0 0 0 0 0 0 0 0 0 0 0 0 0 0 0 0 0 0 0 0 0 0 0 0 0 0 0 0 0 0 0 0 0 0 0 0 0
0 0 0 0 0 0 0 0 0 0 0 0 0 0 0 0 0 0 0 0 0 0 0 0 0 0 0 0 0 0 0 0 0 0 0 0 0 0 0 0 0 0 0 0
0 0 0 0 0 0 0 0 0 0 0 0 0 0 0 0 0 0 0 0 0 0 0 0 0 0 0 0 0 0 0 0 0 0 0 0 0 0 0 0 0 0 0 0
0 0 0 0 0 0 0 0 0 0 0 0 0 0 0 0 0 0 0 0 0 0 0 0 0 0 0 0 0 0 0 0 0 0 0 0 0 0 0 0 0 0 0 0
0 0 0 0 0 0 0 0 0 0 0 0 0 0 0 0 0 0 0 0 0 0 0 0 0 0 0 0 0 0 0 0 0 0 0 0 0 0 0 0 0 0 0 0
0 0 0 0 0 0 0 0 0 0 0 0 0 0 0 0 0 0 0 0 0 0 0 0 0 0 0 0 0 0 0 0 0 0 0 0 0 0 0 0 0 0 0 0
0 0 0 0 0 0 0 0 0 0 0 0 0 0 0 0 0 0 0 0 0 0 0 0 0 0 0 0 0 0 0 0 0 0 0 0 0 0 0 0 0 0 0 0
0 0 0 0 0 0 0 -0 0 0 0 0 0 0 0 0 0 0 0 0 0 0 0 0 0 0 0 0 0 0 0 0 0 0 0 0 0 0 0 0 0 0 0 0
Wind_Speed_500mb
10 15 25 38 35 10 4 8 14 6 4 8 22 26 16 9 10 12 13 13 14 19 24 26 28 30 33 36 40 44 45 46 43 39 33 32 26 21 11 9 9 6 4 5
8 28 30 3 19 17 13 17 25 9 5 9 18 29 16 13 10 13 17 17 18 22 31 38 41 42 42 43 43 42 41 40 38 36 36 34 35 37 32 25 18 14 9 5
26 5 21 17 15 22 24 28 23 18 7 8 11 27 21 9 12 17 19 21 22 26 37 44 51 56 57 56 56 54 51 48 46 43 40 38 33 30 26 23 18 15 15 14
19 9 14 21 23 24 30 26 17 14 10 18 6 13 10 15 20 25 28 29 29 31 39 45 49 53 53 54 51 46 43 39 35 32 30 26 27 27 27 23 21 17 15 15
13 20 22 22 16 25 11 12 20 14 22 10 16 11 7 12 23 27 38 38 35 33 37 43 47 49 50 48 44 41 37 35 34 31 26 22 23 25 26 23 17 14 13 13
10 1 10 9 6 17 29 18 11 6 6 15 30 25 15 15 19 34 46 47 46 45 45 46 47 46 46 43 39 36 32 33 30 24 21 18 21 23 21 18 12 10 9 12
12 17 8 9 10 5 12 20 8 11 12 15 6 17 24 11 17 34 58 62 54 51 52 50 47 45 43 39 34 27 24 23 21 17 17 19 22 22 15 8 5 7 8 10
22 16 30 27 36 21 33 36 13 15 12 6 4 16 9 5 15 7 49 57 56 57 58 56 51 46 42 38 32 25 21 17 20 21 22 24 21 15 11 10 9 7 10 14
20 15 6 11 8 25 20 22 7 10 3 3 11 9 11 11 11 18 43 56 59 58 64 62 55 48 43 37 30 25 25 25 28 27 23 21 16 10 7 7 8 9 12 14
10 9 3 8 8 1 12 24 11 10 10 12 8 10 16 21 28 21 35 55 60 62 66 65 61 53 46 39 35 32 30 27 27 26 22 17 10 5 2 4 7 10 15 18
9 7 7 8 24 35 12 15 10 7 7 7 5 10 9 20 33 38 50 62 68 67 70 70 64 56 50 45 40 36 35 32 30 27 23 17 11 7 3 3 8 14 19 23
21 4 14 27 1 5 23 15 29 14 12 7 4 10 8 7 23 42 46 55 60 66 75 74 69 63 57 52 46 42 39 37 34 30 25 20 16 10 9 8 12 17 22 27
25 11 6 6 10 7 18 23 27 11 5 21 15 8 8 5 14 32 38 48 58 67 71 72 71 70 64 57 51 45 42 40 39 36 30 25 20 16 15 15 18 21 26 31
51 21 30 36 12 23 24 34 31 27 18 23 34 16 17 20 21 29 36 44 54 70 74 73 72 74 67 61 53 47 44 45 45 41 36 30 24 22 23 24 26 28 31 35
27 29 41 50 13 14 17 40 44 47 59 34 35 35 34 34 31 45 48 46 52 60 65 72 75 75 69 64 58 51 49 51 51 48 43 35 30 30 32 33 37 38 37 38
12 24 41 43 21 19 15 34 54 58 51 44 22 28 25 43 28 31 42 48 54 64 71 74 72 67 65 60 60 57 58 58 57 52 46 40 39 39 41 43 45 46 44 42
25 29 16 42 25 7 15 54 42 42 35 44 39 30 18 15 29 42 41 48 61 60 65 65 60 51 49 49 49 57 61 57 57 53 49 47 47 50 50 50 52 52 50 47
17 36 12 5 13 19 15 1 29 36 31 28 4 12 31 27 38 39 42 54 51 52 53 49 42 39 38 38 42 44 51 54 54 53 52 51 54 55 55 54 54 55 53 51
2 11 9 10 14 5 3 9 16 28 32 23 30 13 15 22 23 15 40 38 44 49 40 35 34 33 34 37 40 42 47 50 52 52 51 54 56 56 57 58 56 56 54 53
5 6 12 7 12 19 2 5 7 6 12 20 32 20 25 29 14 13 40 39 39 38 36 34 32 33 34 37 41 42 44 46 45 43 48 53 52 52 56 58 57 55 54 55
10 5 12 9 8 8 5 12 18 15 7 9 36 35 43 14 14 17 42 45 40 36 31 26 24 27 28 35 40 43 41 40 40 42 48 53 55 56 57 58 56 55 55 57
17 17 8 6 7 18 22 12 16 5 10 22 31 41 50 31 28 37 49 47 40 31 25 21 21 28 34 40 43 44 40 38 42 49 56 59 61 61 59 55 54 55 56 58
8 3 8 14 5 5 40 9 15 23 40 28 37 40 39 42 39 44 44 40 32 25 21 22 30 39 38 43 50 51 47 46 49 56 62 63 60 59 55 54 54 55 56 60
6 5 3 5 6 5 30 15 30 28 33 36 33 33 34 33 34 45 44 39 34 29 28 32 41 48 46 49 56 59 57 54 58 58 59 58 57 55 54 54 54 55 57 58
4 16 11 3 4 6 13 37 37 35 34 35 33 30 34 35 35 36 48 46 35 29 32 39 44 56 54 52 57 59 58 58 57 53 53 55 55 53 53 54 54 57 56 56
14 12 9 7 26 20 29 55 60 53 46 31 29 28 30 33 35 37 43 50 48 37 37 42 48 52 59 57 57 56 56 56 54 52 51 53 53 53 54 55 56 56 57 55
Wind_Direction_500mb
161 205 215 215 214 233 177 210 238 173 145 229 243 254 199 191 173 172 166 150 135 130 123 126 127 122 117 114 112 113 113 114 118 121 126 129 129 118 118 106 94 81 40 347
160 229 228 192 193 197 216 237 243 267 193 233 253 256 238 198 205 199 176 159 150 132 126 124 124 124 122 122 121 118 116 118 121 121 121 118 113 111 106 99 98 86 69 52
213 184 190 167 170 200 225 225 233 255 159 231 272 265 221 189 180 170 176 162 153 143 134 127 123 122 121 119 116 112 110 110 108 106 107 110 112 108 104 98 87 73 52 37
238 172 154 189 211 200 235 216 223 212 220 257 218 280 207 181 184 190 182 176 167 157 145 136 128 123 120 117 114 112 110 110 110 114 117 117 119 121 108 95 78 57 45 32
200 176 189 204 206 187 255 156 201 204 225 259 199 257 193 173 207 195 188 181 175 166 157 145 136 131 129 125 122 116 112 110 110 113 116 118 119 113 99 88 78 64 44 31
264 161 196 214 96 185 134 108 78 94 191 248 227 217 203 198 215 183 188 185 179 174 167 158 148 141 138 135 130 121 116 113 114 118 118 119 113 103 93 82 62 45 30 20
211 218 173 170 131 111 185 160 194 221 208 245 154 207 250 197 183 191 183 184 181 178 174 168 160 152 148 143 138 129 122 114 118 125 132 142 134 123 109 81 67 54 38 19
203 231 188 193 214 187 196 190 191 213 205 183 134 225 233 96 136 160 187 179 177 180 181 176 170 164 161 158 155 152 150 143 150 155 154 151 147 139 122 112 85 43 16 3
191 239 187 192 152 172 186 214 176 107 1 233 203 235 237 155 169 168 176 179 183 183 185 181 179 176 175 172 170 173 174 172 165 165 164 163 159 138 107 76 44 7 351 349
194 253 213 162 137 110 210 152 182 227 211 234 214 248 222 201 197 183 182 188 187 188 188 188 187 185 183 184 187 187 184 181 175 173 174 177 178 174 121 35 10 346 339 340
132 210 144 143 208 189 162 190 206 203 203 225 243 233 212 193 186 186 194 194 190 190 191 191 191 192 194 195 197 198 196 191 190 189 190 196 203 208 251 323 329 329 330 331
187 174 200 203 154 269 233 220 193 204 189 239 284 247 162 190 188 189 189 192 193 194 195 196 197 199 200 203 205 207 202 199 199 201 204 208 222 234 251 283 305 314 318 322
170 191 193 237 222 191 214 204 215 226 62 203 192 208 169 185 214 198 184 186 190 195 197 201 204 207 208 210 211 212 211 209 211 211 213 219 228 241 261 277 291 301 311 317
165 178 206 225 234 160 209 205 204 196 225 209 230 207 199 192 198 193 187 190 191 196 200 204 208 212 215 218 221 220 219 218 218 218 220 228 237 251 263 274 280 293 303 309
184 222 219 237 238 203 210 199 196 208 222 210 231 219 195 189 195 197 195 189 188 197 201 207 211 215 219 224 227 228 227 226 224 222 225 231 241 254 265 271 279 283 290 298
200 226 224 236 218 217 218 212 207 213 219 234 230 226 189 195 184 184 193 187 195 202 207 210 214 218 222 229 235 235 232 229 226 226 229 236 246 256 267 271 275 276 279 287
186 205 194 228 208 218 266 224 205 210 214 217 219 230 150 180 191 198 191 196 204 204 206 208 212 214 229 235 237 237 233 230 228 228 233 241 251 259 266 272 274 272 273 282
196 208 205 169 133 215 256 32 205 206 197 209 211 168 174 188 194 201 202 201 199 203 198 198 213 216 218 227 235 238 231 228 228 230 236 245 255 262 267 270 271 269 272 282
42 168 151 178 215 356 284 197 186 182 227 202 210 153 154 150 149 189 197 195 200 198 201 200 204 214 226 232 236 236 222 220 225 233 243 251 258 263 266 268 268 270 275 283
153 340 225 166 207 217 193 174 165 116 263 196 191 158 152 148 180 203 190 188 181 178 186 196 211 221 226 230 227 222 217 222 232 239 254 257 257 264 267 269 271 274 279 285
156 181 214 197 220 278 172 169 164 161 260 148 182 168 160 189 203 196 180 177 179 184 189 200 218 234 231 221 220 218 218 226 251 259 258 254 256 260 265 267 271 276 280 285
176 167 184 149 217 249 149 120 184 135 104 160 177 187 188 189 169 164 167 172 179 185 192 208 230 240 228 223 219 214 229 256 260 261 259 257 257 258 263 268 272 276 280 287
219 217 187 200 196 27 163 82 189 156 153 162 165 179 183 182 174 175 179 182 185 195 206 225 244 237 228 226 221 226 245 257 264 265 260 256 255 259 265 269 272 276 281 287
214 195 213 180 87 100 190 174 182 175 171 168 173 183 192 202 201 197 191 188 200 212 222 231 239 232 227 233 236 239 247 259 266 264 258 253 255 261 265 268 271 275 281 284
138 155 152 79 85 111 202 200 190 189 189 185 187 197 208 211 215 219 210 206 216 225 227 232 237 229 229 232 240 246 252 259 263 259 252 250 255 260 263 267 271 276 279 280
187 159 175 189 187 181 202 219 209 210 206 199 204 217 222 225 229 230 228 226 236 241 239 237 237 235 232 238 244 244 251 258 257 250 248 253 257 259 263 267 272 275 278 277
Wind_Speed_850mb
10 15 25 38 35 10 4 8 14 6 4 8 22 26 16 9 10 12 13 13 14 19 24 26 28 30 33 36 40 44 45 46 43 39 33 32 26 21 11 9 9 6 4 5
8 28 30 3 19 17 13 17 25 9 5 9 18 29 16 13 10 13 17 17 18 22 31 38 41 42 42 43 43 42 41 40 38 36 36 34 35 37 32 25 18 14 9 5
26 5 21 17 15 22 24 28 23 18 7 8 11 27 21 9 12 17 19 21 22 26 37 44 51 56 57 56 56 54 51 48 46 43 40 38 33 30 26 23 18 15 15 14
19 9 14 21 23 24 30 26 17 14 10 18 6 13 10 15 20 25 28 29 29 31 39 45 49 53 53 54 51 46 43 39 35 32 30 26 27 27 27 23 21 17 15 15
13 20 22 22 16 25 11 12 20 14 22 10 16 11 7 12 23 27 38 38 35 33 37 43 47 49 50 48 44 41 37 35 34 31 26 22 23 25 26 23 17 14 13 13
10 1 10 9 6 17 29 18 11 6 6 15 30 25 15 15 19 34 46 47 46 45 45 46 47 46 46 43 39 36 32 33 30 24 21 18 21 23 21 18 12 10 9 12
12 17 8 9 10 5 12 20 8 11 12 15 6 17 24 11 17 34 58 62 54 51 52 50 47 45 43 39 34 27 24 23 21 17 17 19 22 22 15 8 5 7 8 10
22 16 30 27 36 21 33 36 13 15 12 6 4 16 9 5 15 7 49 57 56 57 58 56 51 46 42 38 32 25 21 17 20 21 22 24 21 15 11 10 9 7 10 14
20 15 6 11 8 25 20 22 7 10 3 3 11 9 11 11 11 18 43 56 59 58 64 62 55 48 43 37 30 25 25 25 28 27 23 21 16 10 7 7 8 9 12 14
10 9 3 8 8 1 12 24 11 10 10 12 8 10 16 21 28 21 35 55 60 62 66 65 61 53 46 39 35 32 30 27 27 26 22 17 10 5 2 4 7 10 15 18
9 7 7 8 24 35 12 15 10 7 7 7 5 10 9 20 33 38 50 62 68 67 70 70 64 56 50 45 40 36 35 32 30 27 23 17 11 7 3 3 8 14 19 23
21 4 14 27 1 5 23 15 29 14 12 7 4 10 8 7 23 42 46 55 60 66 75 74 69 63 57 52 46 42 39 37 34 30 25 20 16 10 9 8 12 17 22 27
25 11 6 6 10 7 18 23 27 11 5 21 15 8 8 5 14 32 38 48 58 67 71 72 71 70 64 57 51 45 42 40 39 36 30 25 20 16 15 15 18 21 26 31
51 21 30 36 12 23 24 34 31 27 18 23 34 16 17 20 21 29 36 44 54 70 74 73 72 74 67 61 53 47 44 45 45 41 36 30 24 22 23 24 26 28 31 35
27 29 41 50 13 14 17 40 44 47 59 34 35 35 34 34 31 45 48 46 52 60 65 72 75 75 69 64 58 51 49 51 51 48 43 35 30 30 32 33 37 38 37 38
12 24 41 43 21 19 15 34 54 58 51 44 22 28 25 43 28 31 42 48 54 64 71 74 72 67 65 60 60 57 58 58 57 52 46 40 39 39 41 43 45 46 44 42
25 29 16 42 25 7 15 54 42 42 35 44 39 30 18 15 29 42 41 48 61 60 65 65 60 51 49 49 49 57 61 57 57 53 49 47 47 50 50 50 52 52 50 47
17 36 12 5 13 19 15 1 29 36 31 28 4 12 31 27 38 39 42 54 51 52 53 49 42 39 38 38 42 44 51 54 54 53 52 51 54 55 55 54 54 55 53 51
2 11 9 10 14 5 3 9 16 28 32 23 30 13 15 22 23 15 40 38 44 49 40 35 34 33 34 37 40 42 47 50 52 52 51 54 56 56 57 58 56 56 54 53
5 6 12 7 12 19 2 5 7 6 12 20 32 20 25 29 14 13 40 39 39 38 36 34 32 33 34 37 41 42 44 46 45 43 48 53 52 52 56 58 57 55 54 55
10 5 12 9 8 8 5 12 18 15 7 9 36 35 43 14 14 17 42 45 40 36 31 26 24 27 28 35 40 43 41 40 40 42 48 53 55 56 57 58 56 55 55 57
17 17 8 6 7 18 22 12 16 5 10 22 31 41 50 31 28 37 49 47 40 31 25 21 21 28 34 40 43 44 40 38 42 49 56 59 61 61 59 55 54 55 56 58
8 3 8 14 5 5 40 9 15 23 40 28 37 40 39 42 39 44 44 40 32 25 21 22 30 39 38 43 50 51 47 46 49 56 62 63 60 59 55 54 54 55 56 60
6 5 3 5 6 5 30 15 30 28 33 36 33 33 34 33 34 45 44 39 34 29 28 32 41 48 46 49 56 59 57 54 58 58 59 58 57 55 54 54 54 55 57 58
4 16 11 3 4 6 13 37 37 35 34 35 33 30 34 35 35 36 48 46 35 29 32 39 44 56 54 52 57 59 58 58 57 53 53 55 55 53 53 54 54 57 56 56
14 12 9 7 26 20 29 55 60 53 46 31 29 28 30 33 35 37 43 50 48 37 37 42 48 52 59 57 57 56 56 56 54 52 51 53 53 53 54 55 56 56 57 55
Wind_Direction_850mb
161 205 215 215 214 233 177 210 238 173 145 229 243 254 199 191 173 172 166 150 135 130 123 126 127 122 117 114 112 113 113 114 118 121 126 129 129 118 118 106 94 81 40 347
160 229 228 192 193 197 216 237 243 267 193 233 253 256 238 198 205 199 176 159 150 132 126 124 124 124 122 122 121 118 116 118 121 121 121 118 113 111 106 99 98 86 69 52
213 184 190 167 170 200 225 225 233 255 159 231 272 265 221 189 180 170 176 162 153 143 134 127 123 122 121 119 116 112 110 110 108 106 107 110 112 108 104 98 87 73 52 37
238 172 154 189 211 200 235 216 223 212 220 257 218 280 207 181 184 190 182 176 167 157 145 136 128 123 120 117 114 112 110 110 110 114 117 117 119 121 108 95 78 57 45 32
200 176 189 204 206 187 255 156 201 204 225 259 199 257 193 173 207 195 188 181 175 166 157 145 136 131 129 125 122 116 112 110 110 113 116 118 119 113 99 88 78 64 44 31
264 161 196 214 96 185 134 108 78 94 191 248 227 217 203 198 215 183 188 185 179 174 167 158 148 141 138 135 130 121 116 113 114 118 118 119 113 103 93 82 62 45 30 20
211 218 173 170 131 111 185 160 194 221 208 245 154 207 250 197 183 191 183 184 181 178 174 168 160 152 148 143 138 129 122 114 118 125 132 142 134 123 109 81 67 54 38 19
203 231 188 193 214 187 196 190 191 213 205 183 134 225 233 96 136 160 187 179 177 180 181 176 170 164 161 158 155 152 150 143 150 155 154 151 147 139 122 112 85 43 16 3
191 239 187 192 152 172 186 214 176 107 1 233 203 235 237 155 169 168 176 179 183 183 185 181 179 176 175 172 170 173 174 172 165 165 164 163 159 138 107 76 44 7 351 349
194 253 213 162 137 110 210 152 182 227 211 234 214 248 222 201 197 183 182 188 187 188 188 188 187 185 183 184 187 187 184 181 175 173 174 177 178 174 121 35 10 346 339 340
132 210 144 143 208 189 162 190 206 203 203 225 243 233 212 193 186 186 194 194 190 190 191 191 191 192 194 195 197 198 196 191 190 189 190 196 203 208 251 323 329 329 330 331
187 174 200 203 154 269 233 220 193 204 189 239 284 247 162 190 188 189 189 192 193 194 195 196 197 199 200 203 205 207 202 199 199 201 204 208 222 234 251 283 305 314 318 322
170 191 193 237 222 191 214 204 215 226 62 203 192 208 169 185 214 198 184 186 190 195 197 201 204 207 208 210 211 212 211 209 211 211 213 219 228 241 261 277 291 301 311 317
165 178 206 225 234 160 209 205 204 196 225 209 230 207 199 192 198 193 187 190 191 196 200 204 208 212 215 218 221 220 219 218 218 218 220 228 237 251 263 274 280 293 303 309
184 222 219 237 238 203 210 199 196 208 222 210 231 219 195 189 195 197 195 189 188 197 201 207 211 215 219 224 227 228 227 226 224 222 225 231 241 254 265 271 279 283 290 298
200 226 224 236 218 217 218 212 207 213 219 234 230 226 189 195 184 184 193 187 195 202 207 210 214 218 222 229 235 235 232 229 226 226 229 236 246 256 267 271 275 276 279 287
186 205 194 228 208 218 266 224 205 210 214 217 219 230 150 180 191 198 191 196 204 204 206 208 212 214 229 235 237 237 233 230 228 228 233 241 251 259 266 272 274 272 273 282
196 208 205 169 133 215 256 32 205 206 197 209 211 168 174 188 194 201 202 201 199 203 198 198 213 216 218 227 235 238 231 228 228 230 236 245 255 262 267 270 271 269 272 282
42 168 151 178 215 356 284 197 186 182 227 202 210 153 154 150 149 189 197 195 200 198 201 200 204 214 226 232 236 236 222 220 225 233 243 251 258 263 266 268 268 270 275 283
153 340 225 166 207 217 193 174 165 116 263 196 191 158 152 148 180 203 190 188 181 178 186 196 211 221 226 230 227 222 217 222 232 239 254 257 257 264 267 269 271 274 279 285
156 181 214 197 220 278 172 169 164 161 260 148 182 168 160 189 203 196 180 177 179 184 189 200 218 234 231 221 220 218 218 226 251 259 258 254 256 260 265 267 271 276 280 285
176 167 184 149 217 249 149 120 184 135 104 160 177 187 188 189 169 164 167 172 179 185 192 208 230 240 228 223 219 214 229 256 260 261 259 257 257 258 263 268 272 276 280 287
219 217 187 200 196 27 163 82 189 156 153 162 165 179 183 182 174 175 179 182 185 195 206 225 244 237 228 226 221 226 245 257 264 265 260 256 255 259 265 269 272 276 281 287
214 195 213 180 87 100 190 174 182 175 171 168 173 183 192 202 201 197 191 188 200 212 222 231 239 232 227 233 236 239 247 259 266 264 258 253 255 261 265 268 271 275 281 284
138 155 152 79 85 111 202 200 190 189 189 185 187 197 208 211 215 219 210 206 216 225 227 232 237 229 229 232 240 246 252 259 263 259 252 250 255 260 263 267 271 276 279 280
187 159 175 189 187 181 202 219 209 210 206 199 204 217 222 225 229 230 228 226 236 241 239 237 237 235 232 238 244 244 251 258 257 250 248 253 257 259 263 267 272 275 278 277